Terminal Aerodrome Forecast
Issued by NWS Louisville, KY

Home | Current Version | Previous Version | Text Only | Print | Product List | Glossary On
Versions: 1 2 3 4 5 6 7 8 9 10 11 12 13 14 15 16 17
000
FTUS43 KLMK 301300 AAA
TAFSDF
TAF AMD
KSDF 301345Z 3014/3118 30009KT P6SM -SN OVC040
     FM301600 32010KT P6SM SCT025 BKN050
     FM301900 34009KT P6SM SCT035
     FM310400 10003KT P6SM FEW250=

USA.gov is the U.S. government's official web portal to all federal, state and local government web resources and services.